DW1520 Weather Reports


time (UTC)temp
C
wind
direction
speed
KPH
gust
KPH
rain 1hr
cm
rain 24hr
cm
rain mn
cm
humidity
%
barometer
mb
20260503232006 20 295 4.8 11.3 0.00 0.00 0.00 29 1002.5
20260503231506 20 201 4.8 12.9 0.00 0.00 0.00 29 1002.6
20260503231006 20 299 3.2 11.3 0.00 0.00 0.00 29 1002.6
20260503230006 20 306 3.2 12.9 0.00 0.00 0.00 28 1002.6
20260503225506 20 291 4.8 16.1 0.00 0.00 0.00 28 1002.6
20260503225006 20 305 4.8 14.5 0.00 0.00 0.00 27 1002.6
20260503224506 20 279 4.8 14.5 0.00 0.00 0.00 27 1002.5
20260503224006 20 288 4.8 14.5 0.00 0.00 0.00 29 1002.5
20260503223506 21 254 3.2 16.1 0.00 0.00 0.00 30 1002.5
20260503223006 21 311 4.8 14.5 0.00 0.00 0.00 30 1002.5
20260503222506 21 302 3.2 14.5 0.00 0.00 0.00 32 1002.5
20260503222006 21 300 4.8 12.9 0.00 0.00 0.00 30 1002.5
20260503221506 21 295 3.2 14.5 0.00 0.00 0.00 33 1002.4
20260503221006 21 287 3.2 12.9 0.00 0.00 0.00 33 1002.4
20260503220506 21 229 4.8 14.5 0.00 0.00 0.00 31 1002.4
20260503220006 21 293 3.2 11.3 0.00 0.00 0.00 32 1002.4
20260503214506 21 307 6.4 16.1 0.00 0.00 0.00 30 1002.5
20260503214006 21 323 4.8 12.9 0.00 0.00 0.00 31 1002.5
20260503213506 21 299 8.0 16.1 0.00 0.00 0.00 31 1002.5
20260503213006 21 244 3.2 12.9 0.00 0.00 0.00 34 1002.5
20260503212506 21 243 4.8 11.3 0.00 0.00 0.00 31 1002.5
20260503212006 21 285 4.8 12.9 0.00 0.00 0.00 33 1002.6
20260503211506 21 253 4.8 12.9 0.00 0.00 0.00 32 1002.6
20260503211006 21 295 3.2 14.5 0.00 0.00 0.00 32 1002.6
20260503210506 21 297 4.8 14.5 0.00 0.00 0.00 33 1002.7
20260503210006 21 309 4.8 12.9 0.00 0.00 0.00 32 1002.7
20260503205506 21 296 8.0 16.1 0.00 0.00 0.00 35 1002.8
20260503205006 21 307 9.7 19.3 0.00 0.00 0.00 33 1002.9
20260503204506 21 232 4.8 12.9 0.00 0.00 0.00 33 1002.9
20260503204006 21 277 6.4 14.5 0.00 0.00 0.00 35 1003.0
20260503203006 21 291 3.2 12.9 0.00 0.00 0.00 37 1003.0
20260503202506 21 301 4.8 19.3 0.00 0.00 0.00 37 1003.1
20260503202006 21 238 3.2 12.9 0.00 0.00 0.00 38 1003.0
20260503201506 21 295 8.0 19.3 0.00 0.00 0.00 36 1003.0
20260503201006 21 299 4.8 12.9 0.00 0.00 0.00 36 1003.0
20260503200506 21 291 3.2 12.9 0.00 0.00 0.00 36 1003.0
20260503200006 21 304 1.6 12.9 0.00 0.00 0.00 37 1003.0
20260503195506 21 266 3.2 12.9 0.00 0.00 0.00 34 1003.1
20260503195006 21 295 8.0 16.1 0.00 0.00 0.00 33 1003.2
20260503194506 21 290 6.4 14.5 0.00 0.00 0.00 35 1003.1
20260503194006 21 307 6.4 14.5 0.00 0.00 0.00 34 1003.2
20260503193506 21 292 4.8 12.9 0.00 0.00 0.00 34 1003.3
20260503193006 21 307 3.2 9.7 0.00 0.00 0.00 33 1003.3
20260503191505 21 212 4.8 11.3 0.00 0.00 0.00 35 1003.3
20260503191006 21 293 6.4 14.5 0.00 0.00 0.00 35 1003.3
20260503190506 21 296 4.8 11.3 0.00 0.00 0.00 37 1003.3
20260503190006 21 266 4.8 14.5 0.00 0.00 0.00 36 1003.4
20260503185506 20 250 3.2 12.9 0.00 0.00 0.00 39 1003.3
20260503185006 20 256 4.8 14.5 0.00 0.00 0.00 39 1003.4
20260503184506 20 309 4.8 16.1 0.00 0.00 0.00 37 1003.4
20260503184006 20 306 3.2 11.3 0.00 0.00 0.00 38 1003.5
20260503183506 20 313 3.2 14.5 0.00 0.00 0.00 37 1003.5
20260503183006 20 300 8.0 19.3 0.00 0.00 0.00 38 1003.6
20260503182506 20 251 4.8 12.9 0.00 0.00 0.00 39 1003.5
20260503182006 20 277 4.8 19.3 0.00 0.00 0.00 40 1003.6
20260503181506 20 273 4.8 11.3 0.00 0.00 0.00 40 1003.6
20260503181005 20 296 4.8 14.5 0.00 0.00 0.00 41 1003.7
20260503180506 20 295 3.2 11.3 0.00 0.00 0.00 43 1003.7
20260503180005 20 302 6.4 11.3 0.00 0.00 0.00 40 1003.7
20260503175505 20 311 3.2 11.3 0.00 0.00 0.00 42 1003.7
20260503174505 19 302 6.4 14.5 0.00 0.00 0.00 43 1003.7
20260503174006 19 298 4.8 9.7 0.00 0.00 0.00 41 1003.9
20260503173505 19 302 4.8 16.1 0.00 0.00 0.00 44 1003.9
20260503173006 19 298 4.8 11.3 0.00 0.00 0.00 45 1003.9
20260503172006 19 300 4.8 14.5 0.00 0.00 0.00 44 1003.9
20260503171506 18 288 4.8 9.7 0.00 0.00 0.00 44 1003.9
20260503171006 18 306 3.2 9.7 0.00 0.00 0.00 45 1003.8
20260503170506 18 303 6.4 11.3 0.00 0.00 0.00 44 1003.8
20260503151006 17 223 3.2 11.3 0.00 0.00 0.00 48 1003.6
20260503150506 16 154 1.6 9.7 0.00 0.00 0.00 49 1003.5
20260503131006 12 171 9.7 16.1 0.00 0.00 0.00 52 1003.8
20260503130506 12 175 8.0 16.1 0.00 0.00 0.00 53 1003.7
20260503110506 11 177 11.3 20.9 0.00 0.00 0.00 56 1003.5
20260503090505 12 174 9.7 16.1 0.00 0.00 0.00 50 1005.0
20260503081505 13 174 11.3 20.9 0.00 0.00 0.00 48 1006.4
20260503081006 13 177 9.7 19.3 0.00 0.00 0.00 49 1006.6
20260503072505 12 174 8.0 11.3 0.00 0.00 0.00 50 1007.0
20260503072006 12 177 8.0 16.1 0.00 0.00 0.00 50 1006.8
20260503071506 12 157 8.0 16.1 0.00 0.00 0.00 51 1006.8
20260503071006 12 167 9.7 14.5 0.00 0.00 0.00 51 1006.9
20260503070506 12 174 8.0 16.1 0.00 0.00 0.00 51 1007.0
20260503055006 12 174 4.8 16.1 0.00 0.00 0.00 51 1007.8
20260503053506 12 164 8.0 14.5 0.00 0.00 0.00 50 1008.0
20260503053005 12 180 8.0 14.5 0.00 0.00 0.00 51 1008.2
20260503052505 12 174 8.0 16.1 0.00 0.00 0.00 50 1008.2
20260503052006 12 172 6.4 16.1 0.00 0.00 0.00 51 1008.3
20260503051506 12 170 3.2 9.7 0.00 0.00 0.00 51 1008.3
20260503051006 12 160 6.4 11.3 0.00 0.00 0.00 50 1008.4
20260503050006 12 153 3.2 9.7 0.00 0.00 0.00 52 1008.4
20260503045505 12 171 4.8 9.7 0.00 0.00 0.00 51 1008.4
20260503045005 12 172 6.4 9.7 0.00 0.00 0.00 51 1008.5
20260503044506 12 159 3.2 8.0 0.00 0.00 0.00 54 1008.5
20260503044006 12 159 1.6 4.8 0.00 0.00 0.00 53 1008.6
20260503043505 12 159 1.6 3.2 0.00 0.00 0.00 54 1008.6
20260503043005 12 159 0.0 3.2 0.00 0.00 0.00 53 1008.7
20260503042506 12 159 0.0 1.6 0.00 0.00 0.00 52 1008.8
20260503041505 13 159 0.0 1.6 0.00 0.00 0.00 50 1009.0
20260503040506 13 159 0.0 3.2 0.00 0.00 0.00 50 1009.2
20260503040006 13 159 0.0 1.6 0.00 0.00 0.00 49 1009.3
20260503035006 13 159 1.6 3.2 0.00 0.00 0.00 50 1009.4
20260503034505 13 159 1.6 3.2 0.00 0.00 0.00 50 1009.5
20260503034006 13 159 0.0 1.6 0.00 0.00 0.00 47 1009.5
20260503033505 13 159 0.0 1.6 0.00 0.00 0.00 48 1009.6
20260503033006 13 159 0.0 1.6 0.00 0.00 0.00 47 1009.6
20260503032506 13 159 0.0 0.0 0.00 0.00 0.00 46 1009.7
20260503032006 13 159 0.0 1.6 0.00 0.00 0.00 45 1009.8
20260503031506 14 159 0.0 0.0 0.00 0.00 0.00 46 1009.9
20260503031006 14 159 0.0 1.6 0.00 0.00 0.00 45 1009.9
20260503030506 14 159 1.6 3.2 0.00 0.00 0.00 45 1010.0
20260503030005 14 159 1.6 4.8 0.00 0.00 0.00 45 1010.0
20260503025505 14 159 1.6 4.8 0.00 0.00 0.00 45 1010.0
20260503025006 14 159 1.6 4.8 0.00 0.00 0.00 45 1010.1
20260503023506 14 159 3.2 8.0 0.00 0.00 0.00 44 1010.1
20260503021506 15 159 4.8 11.3 0.00 0.00 0.00 42 1010.3
20260503021005 15 165 4.8 11.3 0.00 0.00 0.00 43 1010.3
20260503020506 15 164 3.2 8.0 0.00 0.00 0.00 43 1010.3
20260503020006 15 161 3.2 8.0 0.00 0.00 0.00 43 1010.2
20260503015505 15 161 3.2 9.7 0.00 0.00 0.00 43 1010.1
20260503015006 15 179 3.2 4.8 0.00 0.00 0.00 43 1010.1
20260503014506 15 176 3.2 8.0 0.00 0.00 0.00 43 1010.1
20260503014007 15 164 4.8 9.7 0.00 0.00 0.00 44 1010.2
20260503013505 15 182 1.6 4.8 0.00 0.00 0.00 46 1010.2
20260503012006 15 182 0.0 1.6 0.00 0.00 0.00 42 1010.1
20260503011506 15 182 0.0 3.2 0.00 0.00 0.00 42 1010.2
20260503011006 15 182 3.2 4.8 0.00 0.00 0.00 41 1010.2
20260503010506 15 182 1.6 4.8 0.00 0.00 0.00 40 1010.3
20260503005506 16 182 1.6 4.8 0.00 0.00 0.00 39 1010.3
20260503005005 16 182 1.6 4.8 0.00 0.00 0.00 40 1010.3
20260503004506 16 182 1.6 4.8 0.00 0.00 0.00 40 1010.4
20260503004005 16 182 0.0 1.6 0.00 0.00 0.00 40 1010.4
20260503003506 16 182 1.6 3.2 0.00 0.00 0.00 38 1010.5
20260503003007 16 182 1.6 3.2 0.00 0.00 0.00 38 1010.5
20260503002506 16 182 1.6 3.2 0.00 0.00 0.00 38 1010.5
20260503002006 16 182 1.6 3.2 0.00 0.00 0.00 36 1010.6
20260503001505 16 182 3.2 8.0 0.00 0.00 0.00 37 1010.6
20260503001006 16 178 3.2 4.8 0.00 0.00 0.00 36 1010.6
20260503000505 16 198 3.2 4.8 0.00 0.00 0.00 37 1010.7
20260502235506 16 171 1.6 4.8 0.00 0.00 0.00 36 1010.9
20260502235006 16 171 3.2 8.0 0.00 0.00 0.00 36 1010.9
20260502234505 16 167 4.8 9.7 0.00 0.00 0.00 36 1010.9
20260502234006 17 198 3.2 8.0 0.00 0.00 0.00 34 1010.9
20260502233006 16 250 1.6 9.7 0.00 0.00 0.00 35 1011.0